Tekamah, NE

6:37 PM CDT on August 26, 2016 (GMT -0500)
Tekamah

Weather History for KTQE - April, 2013

Change the Weather History Date:

Sunday, April 7, 2013

  Actual Average Record
Temperature  
Mean Temperature 53 °F -  
Max Temperature 73 °F 64 °F 90 °F (1991)
Min Temperature 33 °F 37 °F 17 °F (2007)
Degree Days  
Heating Degree Days 12    
Growing Degree Days 3 (Base 50)    
Moisture  
Dew Point 38 °F    
Average Humidity 63    
Maximum Humidity 85    
Minimum Humidity 30    
Precipitation  
Precipitation 0.00 in - - ()
Sea Level Pressure  
Sea Level Pressure 29.76 in    
Wind  
Wind Speed 7 mph (NE)    
Max Wind Speed 18 mph    
Max Gust Speed 33 mph    
Visibility 7 miles    
Events Rain    
Averages and records for this station are not official NWS values.
T = Trace of Precipitation, MM = Missing Value Source: NWS Daily Summary

Daily Weather History Graph

Daily Weather History Graph

Search for Another Location

Airport or City:

Trip Planner

Search our weather history database for the weather conditions in past years. The results will help you decide how hot, cold, wet, or windy it might be!

Date:

Astronomy

Apr. 07, 2013 Rise Set
Actual Time 6:57 AM CDT 7:57 PM CDT
Civil Twilight 6:28 AM CDT 8:25 PM CDT
Nautical Twilight 5:54 AM CDT 8:59 PM CDT
Astronomical Twilight 5:19 AM CDT 9:34 PM CDT
Moon 5:17 AM CDT (4/7) 5:28 PM CDT (4/7)
Length of Visible Light 13h 56m
Length of Day
13h 00m
Waning Crescent, 8% of the Moon is Illuminated
Apr 7
Waning Crescent
Apr 10
New
Apr 18
First Quarter
Apr 25
Full
May 2
Last Quarter

Hourly Weather History & Observations

Time (CDT) Temp. Windchill Dew Point Humidity Pressure Visibility Wind Dir Wind Speed Gust Speed Precip Events Conditions
12:54 AM 42.1 °F 40.2 °F 34.0 °F 73% 29.80 in 10.0 mi WNW 3.5 mph - N/A   Clear
1:54 AM 42.1 °F 39.2 °F 35.1 °F 76% 29.81 in 10.0 mi North 4.6 mph - N/A   Clear
2:54 AM 39.0 °F 34.8 °F 32.0 °F 76% 29.81 in 10.0 mi North 5.8 mph - N/A   Clear
3:54 AM 37.0 °F 31.6 °F 32.0 °F 82% 29.82 in 10.0 mi NNW 6.9 mph - N/A   Clear
4:54 AM 35.1 °F 30.1 °F 30.0 °F 82% 29.82 in 7.0 mi NNW 5.8 mph - N/A   Clear
5:54 AM 33.1 °F 28.7 °F 28.9 °F 85% 29.83 in 5.0 mi NNW 4.6 mph - N/A   Clear
6:54 AM 33.1 °F 27.7 °F 28.9 °F 85% 29.85 in 4.0 mi North 5.8 mph - N/A   Clear
7:10 AM 35.6 °F 30.7 °F 30.2 °F 81% 29.86 in 2.5 mi NNW 5.8 mph - N/A   Haze
7:54 AM 39.9 °F 36.7 °F 34.0 °F 79% 29.86 in 3.0 mi NNE 4.6 mph - 0.00 in   Haze
8:54 AM 44.1 °F 40.1 °F 36.0 °F 73% 29.85 in 3.0 mi East 6.9 mph - 0.00 in   Haze
9:54 AM 46.9 °F - 36.0 °F 66% 29.87 in 4.0 mi SE 4.6 mph - N/A   Haze
10:54 AM 52.0 °F - 37.0 °F 57% 29.84 in 5.0 mi ESE 11.5 mph - N/A   Haze
11:54 AM 59.0 °F - 39.0 °F 48% 29.81 in 6.0 mi ESE 10.4 mph - N/A   Haze
12:54 PM 63.0 °F - 39.9 °F 43% 29.79 in 7.0 mi ESE 12.7 mph - N/A   Mostly Cloudy
1:54 PM 66.9 °F - 41.0 °F 39% 29.76 in 6.0 mi SSE 15.0 mph - N/A   Haze
2:54 PM 68.0 °F - 41.0 °F 37% 29.73 in 7.0 mi SSE 13.8 mph - N/A   Overcast
3:54 PM 73.0 °F - 39.9 °F 30% 29.69 in 10.0 mi SSE 17.3 mph - N/A   Scattered Clouds
4:54 PM 72.0 °F - 39.9 °F 31% 29.67 in 10.0 mi South 5.8 mph - N/A   Overcast
5:54 PM 66.0 °F - 46.0 °F 48% 29.69 in 9.0 mi South 18.4 mph 33.4 mph 0.00 in Rain Light Rain
6:54 PM 64.9 °F - 44.1 °F 47% 29.65 in 9.0 mi NNW 11.5 mph - 0.00 in   Overcast
7:54 PM 61.0 °F - 44.1 °F 54% 29.66 in 10.0 mi North 9.2 mph - N/A   Mostly Cloudy
8:54 PM 59.0 °F - 45.0 °F 60% 29.68 in 10.0 mi NNW 9.2 mph - 0.00 in Rain Light Rain
9:54 PM 55.0 °F - 46.9 °F 74% 29.65 in 9.0 mi NE 4.6 mph - 0.00 in   Overcast
10:54 PM 54.0 °F - 46.9 °F 77% 29.64 in 9.0 mi Calm Calm - 0.00 in Rain Light Rain
11:54 PM 53.1 °F - 46.9 °F 80% 29.62 in 9.0 mi South 8.1 mph - 0.00 in   Partly Cloudy